OpenBCM V2.0.2 (Linux)

Packet Radio Mailbox

IZ3LSV

[San Dona' di P. JN]

 Login: GUEST





  
CX2SA  > KEP      08.01.20 01:32l 86 Lines 3610 Bytes #999 (0) @ ARL
BID : ARLK002
Read: GUEST
Subj: ARLK002 Keplerian data
Path: IZ3LSV<IQ5KG<I0OJJ<N6RME<CX2SA
Sent: 200107/2323Z @:CX2SA.SAL.URY.SOAM #:22518 [Salto] FBB7.00e $:ARLK002
From: CX2SA@CX2SA.SAL.URY.SOAM
To  : KEP@ARL


ZCZC SK02
QST de W1AW
Keplerian Bulletin 2  ARLK002
From ARRL Headquarters
Newington, CT  January 7, 2020
To all radio amateurs

SB KEP ARL ARLK002
ARLK002 Keplerian data

Special thanks to AMSAT-NA (AMSAT.ORG) for the following Keplerian
data.

Decode 2-line elsets with the following key:
1 AAAAAU 00  0  0 BBBBB.BBBBBBBB  .CCCCCCCC  00000-0  00000-0 0  DDDZ
2 AAAAA EEE.EEEE FFF.FFFF GGGGGGG HHH.HHHH III.IIII JJ.JJJJJJJJKKKKKZ
KEY: A-CATALOGNUM B-EPOCHTIME C-DECAY D-ELSETNUM E-INCLINATION F-RAAN
G-ECCENTRICITY H-ARGPERIGEE I-MNANOM J-MNMOTION K-ORBITNUM Z-CHECKSUM

0 AO-07
1 7530U 74089B   20007.49296885 -.00000040  00000-0  31507-4 0  9998
2 7530 101.7765 338.2965 0012116 317.3609 153.9519 12.53641545 65932
0 FO-29
1 24278U 96046B   20006.86196413 -.00000033 +00000-0 +84028-7 0  9990
2 24278 098.5648 138.1500 0351317 076.0416 287.9526 13.53095194154893
0 ISS
1 25544U 98067A   20007.64443576  .00001205  00000-0  29535-4 0  9994
2 25544  51.6455  67.8006 0005157 108.6764 356.2953 15.49546996206970
0 SO-50
1 27607U 02058C   20006.85137163 -.00000009 +00000-0 +19567-4 0  9991
2 27607 064.5544 151.5115 0067408 216.3476 143.3039 14.75600227916738
0 CO-55
1 27844U 03031E   20006.91927986 +.00000039 +00000-0 +36998-4 0  9992
2 27844 098.6833 017.0987 0010179 160.4727 199.6843 14.22214492856999
0 RS-22
1 27939U 03042A   20007.51381336  .00000046  00000-0  16835-4 0  9995
2 27939  98.0657 144.7354 0013861 141.9050 218.3141 14.66829043870271
0 RS-30
1 32953U 08025A   20007.46387215  .00000037  00000-0  19437-3 0  9999
2 32953  82.5040  18.6557 0020156  49.5975 310.6859 12.43093493527507
0 KKS-1
1 33499U 09002H   20007.17280139  .00000095  00000-0  22030-4 0  9994
2 33499  98.3321 217.1803 0007935 284.3183  75.7144 14.75493938589082
0 AO-71
1 37854U 11061E   20006.91035915 +.00000788 +00000-0 +47730-4 0  9995
2 37854 101.7136 014.2608 0159445 185.0118 174.9506 15.06905196446997
0 AO-73
1 39444U 13066AE  20006.72177051  .00000275  00000-0  39869-4 0  9991
2 39444  97.5573  15.9739 0059507  84.6920 276.1080 14.82039699329853
0 UKUBE 1
1 40074U 14037F   20007.43326535  .00000302  00000-0  43344-4 0  9997
2 40074  98.4488 186.1510 0003403 292.9187  67.1669 14.84169691297729
0 XW-2A
1 40903U 15049E   20007.42225256  .00001756  00000-0  42386-4 0  9998
2 40903  97.3126  56.0920 0014733 127.0574 330.4777 15.42495131241498
0 XW-2F
1 40910U 15049M   20007.45828670  .00000803  00000-0  43200-4 0  9996
2 40910  97.4657  13.2670 0013973 199.0334 319.2300 15.17634089237762
0 XW-2B
1 40911U 15049N   20007.47144738  .00000793  00000-0  44687-4 0  9993
2 40911  97.4731  11.6421 0013035 209.0287 304.5806 15.16024040237622
0 IO-86
1 40931U 15052B   20002.58753715  .00000638  00000-0 -24146-6 0  9996
2 40931   5.9928  85.5229 0013528  76.7647 283.7111 14.76622055230555
0 CAS-4B
1 42759U 17034B   20007.52166574  .00000039  00000-0  15877-4 0  9991
2 42759  43.0177 196.6841 0010137  86.7843 319.1179 15.09716142141490
0 CAS-4A
1 42761U 17034D   20007.53807035 -.00000092  00000-0  78971-5 0  9994
2 42761  43.0177 196.0003 0010461  89.1132 303.4206 15.09792808141495
0 AO-91
1 43017U 17073E   20007.00144631  .00000291  00000-0  28536-4 0  9991
2 43017  97.7266 285.4780 0256533 219.3364 138.8969 14.78764863115151
0 AO-92
1 43137U 18004AC  20006.71218781 +.00000939 +00000-0 +41985-4 0  9996
2 43137 097.4663 078.8405 0007601 266.6771 093.3597 15.23808000110269

Keplerian bulletins are transmitted twice weekly from W1AW.  The
next scheduled transmission of these data will be Friday, January 10,
2020, at 2230z on Baudot and BPSK31.
NNNN


Read previous mail | Read next mail


 08.05.2026 00:00:29lGo back Go up